Location: Be?i?
(36.9044°N, 30.1006°E)
Time: 12:10:49
(UTC+00:00)

Cosmos 2279 Rocket - Pass Details

Date: 05 August 2024
Orbit: 962 x 979 km, 82.9° (Epoch: 13 September)

Event Time Altitude Azimuth Distance (km) Brightness Sun altitude
Exits shadow 23:18:17 54° 63° (ENE) 1,175 4.5 -33.8°
Drops below altitude 10° 23:23:38 10° 15° (NNE) 2,735 7.2 -33.4°
Sets 23:26:11 0° 12° (NNE) 3,687 8.1 -33.2°
